Weather History for Dayton, OH

Change the Weather History Date:

Sunday, January 12, 2014

  Actual Average Record
Temperature  
Mean Temperature 38 °F 27 °F  
Max Temperature 44 °F 34 °F 67 °F (1916)
Min Temperature 32 °F 20 °F -16 °F (1918)
Degree Days  
Heating Degree Days 27 38  
Month to date heating degree days 494 450  
Since 1 July heating degree days 2613 2609  
Cooling Degree Days 0 0  
Month to date cooling degree days 0 0  
Year to date cooling degree days 0 0  
Moisture  
Dew Point 29 °F    
Average Humidity 72    
Maximum Humidity 85    
Minimum Humidity 58    
Precipitation  
Precipitation 0.00 in 0.09 in 1.06 in (1916)
Month to date precipitation 1.91 1.14  
Year to date precipitation 1.91 1.14  
Snow  
Snow 0.00 in 0.20 in 5.80 in (1964)
Month to date snowfall 8.1 2.9  
Since 1 July snowfall 22.7 8.4  
Snow Depth 0.00 in    
Sea Level Pressure  
Sea Level Pressure 29.95 in    
Wind  
Wind Speed 13 mph (SW)    
Max Wind Speed 26 mph    
Max Gust Speed 33 mph    
Visibility 10 miles    
Events      
T = Trace of Precipitation, MM = Missing Value Source: NWS Daily Summary

Daily Weather History Graph

Daily Weather History Graph

Search for Another Location

Airport:

Trip Planner

Search our weather history database for the weather conditions in past years. The results will help you decide how hot, cold, wet, or windy it might be!

Date:

Astronomy

Jan. 12, 2014 Rise Set
Actual Time 7:57 AM EST 5:33 PM EST
Civil Twilight 7:27 AM EST 6:03 PM EST
Nautical Twilight 6:54 AM EST 6:36 PM EST
Astronomical Twilight 6:21 AM EST 7:09 PM EST
Moon 3:00 PM EST (1/12) 4:55 AM EST (1/12)
Length of Visible Light 10h 35m
Length of Day
9h 35m
Waxing Gibbous, 89% of the Moon is Illuminated
Jan 12
Waxing Gibbous
Jan 15
Full
Jan 24
Last Quarter
Jan 30
New
Feb 6
First Quarter

Hourly Weather History & Observations

Time (EST) Temp. Windchill Dew Point Humidity Pressure Visibility Wind Dir Wind Speed Gust Speed Precip Events Conditions
12:56 AM 36.0 °F 28.0 °F 30.9 °F 82% 29.79 in 9.0 mi SW 11.5 mph - N/A   Overcast
1:56 AM 36.0 °F 27.1 °F 30.9 °F 82% 29.81 in 9.0 mi WSW 13.8 mph - N/A   Overcast
2:56 AM 36.0 °F 26.0 °F 30.0 °F 79% 29.84 in 8.0 mi West 17.3 mph 25.3 mph N/A   Overcast
3:56 AM 34.0 °F 25.5 °F 28.9 °F 82% 29.87 in 10.0 mi West 11.5 mph - N/A   Overcast
4:09 AM 33.8 °F 24.3 °F 28.4 °F 81% 29.85 in 9.0 mi West 13.8 mph - N/A   Overcast
4:56 AM 33.1 °F 25.5 °F 28.9 °F 85% 29.90 in 8.0 mi WNW 9.2 mph - N/A   Overcast
5:35 AM 33.8 °F 25.3 °F 26.6 °F 75% 29.89 in 10.0 mi WNW 11.5 mph 19.6 mph N/A   Overcast
5:56 AM 33.1 °F 25.5 °F 28.0 °F 82% 29.94 in 10.0 mi West 9.2 mph - N/A   Overcast
6:56 AM 32.0 °F 24.2 °F 27.0 °F 82% 29.95 in 10.0 mi West 9.2 mph - N/A   Overcast
7:38 AM 32.0 °F 24.8 °F 28.4 °F 87% 29.94 in 10.0 mi WSW 8.1 mph - N/A   Overcast
7:56 AM 32.0 °F 23.0 °F 28.0 °F 85% 30.00 in 10.0 mi West 11.5 mph - N/A   Overcast
8:16 AM 32.0 °F 25.6 °F 26.6 °F 80% 29.97 in 10.0 mi West 6.9 mph - N/A   Overcast
8:56 AM 33.1 °F 26.1 °F 28.0 °F 82% 30.03 in 10.0 mi WSW 8.1 mph - N/A   Overcast
9:56 AM 33.1 °F 23.9 °F 27.0 °F 78% 30.06 in 10.0 mi WSW 12.7 mph - N/A   Overcast
10:12 AM 33.8 °F 24.3 °F 28.4 °F 81% 30.03 in 10.0 mi WSW 13.8 mph - N/A   Overcast
10:56 AM 33.1 °F 24.9 °F 28.0 °F 82% 30.07 in 10.0 mi SW 10.4 mph - N/A   Overcast
11:56 AM 34.0 °F 26.6 °F 28.0 °F 79% 30.06 in 10.0 mi SSW 9.2 mph - N/A   Overcast
12:56 PM 35.1 °F 26.9 °F 28.9 °F 78% 30.03 in 8.0 mi SW 11.5 mph - N/A   Mostly Cloudy
1:29 PM 37.4 °F 32.1 °F 30.2 °F 75% 29.98 in 9.0 mi SSW 6.9 mph - N/A   Mostly Cloudy
1:36 PM 37.4 °F 29.8 °F 30.2 °F 75% 29.97 in 9.0 mi South 11.5 mph - N/A   Mostly Cloudy
1:56 PM 39.0 °F 31.8 °F 30.9 °F 73% 29.99 in 9.0 mi South 11.5 mph - N/A   Mostly Cloudy
2:56 PM 39.9 °F 32.9 °F 30.0 °F 68% 29.99 in 10.0 mi South 11.5 mph - N/A   Mostly Cloudy
3:56 PM 42.1 °F 36.1 °F 30.9 °F 65% 29.98 in 9.0 mi South 10.4 mph 19.6 mph N/A   Mostly Cloudy
4:56 PM 41.0 °F 34.3 °F 30.9 °F 67% 29.98 in 10.0 mi South 11.5 mph - N/A   Mostly Cloudy
5:56 PM 39.9 °F 33.4 °F 30.9 °F 70% 29.98 in 10.0 mi South 10.4 mph - N/A   Mostly Cloudy
6:56 PM 39.0 °F 32.3 °F 30.9 °F 73% 29.98 in 10.0 mi SSE 10.4 mph - N/A   Scattered Clouds
7:56 PM 39.0 °F 31.0 °F 32.0 °F 76% 29.96 in 10.0 mi South 13.8 mph - N/A   Partly Cloudy
8:56 PM 41.0 °F 31.9 °F 32.0 °F 70% 29.93 in 10.0 mi South 19.6 mph - N/A   Clear
9:56 PM 42.1 °F 33.6 °F 30.9 °F 65% 29.91 in 10.0 mi South 18.4 mph 25.3 mph N/A   Clear
10:56 PM 44.1 °F 35.2 °F 30.9 °F 60% 29.88 in 10.0 mi South 23.0 mph 33.4 mph N/A   Clear
11:56 PM 44.1 °F 36.2 °F 30.0 °F 58% 29.87 in 10.0 mi South 18.4 mph - N/A   Clear